ISS (ZARYA)

Last updated on Thu Dec 18 2025 00:02:12 GMT+0000 (Coordinated Universal Time)

1 25544U 98067A 25351.57133537 .00007597 00000+0 14274-3 0 9998 2 25544 51.6310 118.5527 0003182 262.6214 97.4413 15.49636687543605
UTC large
Height (km)
Speed (km/s)
/
Latitude / Longitude
Inclination (degrees)
Orbital Period (minutes)
Azimuth
Elevation
Range (km)
Doppler Factor

Next 0 passes for location: London (51.5072 / 0.1276)

Sorry there are no passes over London.